Location: Berkeley
(37.8716°N, 122.2727°W)
Time: 07:49:18
(UTC-07:00)

Hubble Space Telescope - Visible Passes

Search period start: 23 May 2017 00:00
Search period end: 02 June 2017 00:00
Orbit: 538 x 541 km, 28.5° (Epoch: 22 May)

Date Brightness Start Highest point End Pass type
(mag) Time Alt. Az. Time Alt. Az. Time Alt. Az.
23 May 2.7 04:34:06 14° S 04:34:06 14° S 04:35:38 10° SSE visible
28 May 2.9 20:49:47 10° SSE 20:50:05 10° SSE 20:50:24 10° SSE visible
28 May 3.2 22:27:35 10° SW 22:27:51 11° SW 22:27:51 11° SW visible
29 May 2.7 22:17:19 10° SW 22:18:49 17° SSW 22:18:49 17° SSW visible
30 May 2.3 22:07:06 10° SW 22:09:38 21° SSW 22:09:38 21° SSW visible
31 May 2.1 21:56:56 10° SW 22:00:10 22° S 22:00:17 22° S visible
01 Jun 2.1 21:46:48 10° SW 21:50:01 22° S 21:50:50 21° SSE visible
